| time (UTC) | temp F | wind direction | speed MPH | gust MPH | rain 1hr in | rain 24hr in | rain mn in | humidity % | barometer mb |
| 20260505024136 | 71 | 11 | 0.0 | 0.0 | 0.00 | 0.00 | 0.00 | 33 | 1008.6 |
| 20260505022958 | 71 | 19 | 0.0 | 0.0 | 0.00 | 0.00 | 0.00 | 31 | 1008.5 |
| 20260505021814 | 72 | 30 | 0.0 | 6.0 | 0.00 | 0.00 | 0.00 | 30 | 1008.5 |
| 20260505015218 | 73 | 36 | 1.0 | 9.0 | 0.00 | 0.00 | 0.00 | 29 | 1008.5 |
| 20260505014029 | 73 | 13 | 0.0 | 0.0 | 0.00 | 0.00 | 0.00 | 28 | 1008.5 |
| 20260505012826 | 73 | 16 | 3.0 | 11.0 | 0.00 | 0.00 | 0.00 | 27 | 1008.6 |
| 20260505011637 | 74 | 11 | 1.0 | 6.0 | 0.00 | 0.00 | 0.00 | 27 | 1008.6 |
| 20260505010413 | 74 | 23 | 2.0 | 0.0 | 0.00 | 0.00 | 0.00 | 26 | 1008.7 |
| 20260505005143 | 74 | 14 | 2.0 | 17.0 | 0.00 | 0.00 | 0.00 | 25 | 1008.7 |
| 20260505002512 | 74 | 26 | 0.0 | 2.0 | 0.00 | 0.00 | 0.00 | 26 | 1008.6 |
| 20260505001312 | 74 | 33 | 0.0 | 7.0 | 0.00 | 0.00 | 0.00 | 26 | 1008.8 |
| 20260505000042 | 74 | 56 | 1.0 | 12.0 | 0.00 | 0.00 | 0.00 | 27 | 1008.8 |
| 20260504234851 | 74 | 27 | 4.0 | 13.0 | 0.00 | 0.00 | 0.00 | 25 | 1008.9 |
| 20260504233657 | 74 | 36 | 7.0 | 19.0 | 0.00 | 0.00 | 0.00 | 27 | 1008.7 |
| 20260504232526 | 75 | 43 | 1.0 | 6.0 | 0.00 | 0.00 | 0.00 | 28 | 1008.6 |
| 20260504231343 | 75 | 5 | 3.0 | 13.0 | 0.00 | 0.00 | 0.00 | 27 | 1008.7 |
| 20260504230114 | 74 | 55 | 2.0 | 0.0 | 0.00 | 0.00 | 0.00 | 28 | 1008.7 |
| 20260504224935 | 75 | 5 | 2.0 | 15.0 | 0.00 | 0.00 | 0.00 | 29 | 1008.8 |
| 20260504222359 | 75 | 32 | 1.0 | 12.0 | 0.00 | 0.00 | 0.00 | 29 | 1008.9 |
| 20260504215819 | 74 | 0 | 1.0 | 12.0 | 0.00 | 0.00 | 0.00 | 29 | 1008.9 |
| 20260504214558 | 74 | 13 | 5.0 | 13.0 | 0.00 | 0.00 | 0.00 | 29 | 1008.9 |
| 20260504212046 | 74 | 333 | 3.0 | 14.0 | 0.00 | 0.00 | 0.00 | 29 | 1009.2 |
| 20260504210846 | 73 | 343 | 5.0 | 15.0 | 0.00 | 0.00 | 0.00 | 32 | 1009.2 |
| 20260504205716 | 74 | 343 | 3.0 | 15.0 | 0.00 | 0.00 | 0.00 | 30 | 1009.3 |
| 20260504204501 | 73 | 349 | 3.0 | 15.0 | 0.00 | 0.00 | 0.00 | 31 | 1009.3 |
| 20260504201921 | 73 | 355 | 4.0 | 13.0 | 0.00 | 0.00 | 0.00 | 34 | 1009.3 |
| 20260504200749 | 72 | 0 | 3.0 | 16.0 | 0.00 | 0.00 | 0.00 | 34 | 1009.4 |
| 20260504195620 | 72 | 5 | 7.0 | 16.0 | 0.00 | 0.00 | 0.00 | 35 | 1009.4 |
| 20260504194441 | 71 | 348 | 6.0 | 12.0 | 0.00 | 0.00 | 0.00 | 35 | 1009.4 |
| 20260504191910 | 71 | 5 | 2.0 | 12.0 | 0.00 | 0.00 | 0.00 | 36 | 1009.6 |
| 20260504185431 | 70 | 9 | 4.0 | 14.0 | 0.00 | 0.00 | 0.00 | 38 | 1009.7 |
| 20260504184223 | 70 | 5 | 4.0 | 14.0 | 0.00 | 0.00 | 0.00 | 39 | 1009.8 |
| 20260504183017 | 70 | 351 | 2.0 | 13.0 | 0.00 | 0.00 | 0.00 | 39 | 1010.0 |
| 20260504181748 | 69 | 15 | 3.0 | 13.0 | 0.00 | 0.00 | 0.00 | 38 | 1010.0 |
| 20260504180608 | 68 | 13 | 5.0 | 13.0 | 0.00 | 0.00 | 0.00 | 40 | 1010.0 |
| 20260504175429 | 68 | 19 | 4.0 | 13.0 | 0.00 | 0.00 | 0.00 | 41 | 1010.0 |
| 20260504174154 | 68 | 19 | 4.0 | 13.0 | 0.00 | 0.00 | 0.00 | 41 | 1009.9 |
| 20260504171649 | 66 | 29 | 4.0 | 14.0 | 0.00 | 0.00 | 0.00 | 42 | 1010.1 |
| 20260504170456 | 65 | 5 | 2.0 | 15.0 | 0.00 | 0.00 | 0.00 | 44 | 1010.1 |
| 20260504160318 | 61 | 39 | 4.0 | 15.0 | 0.00 | 0.00 | 0.00 | 52 | 1010.2 |
| 20260504150247 | 57 | 132 | 0.0 | 0.0 | 0.00 | 0.00 | 0.00 | 62 | 1010.4 |
| 20260504141327 | 52 | 123 | 0.0 | 0.0 | 0.00 | 0.00 | 0.00 | 77 | 1010.3 |
| 20260504140157 | 51 | 118 | 0.0 | 0.0 | 0.00 | 0.00 | 0.00 | 77 | 1010.2 |
| 20260504130106 | 49 | 112 | 0.0 | 0.0 | 0.00 | 0.00 | 0.00 | 80 | 1009.7 |
| 20260504044744 | 64 | 146 | 0.0 | 0.0 | 0.00 | 0.00 | 0.00 | 47 | 1009.5 |
| 20260504043530 | 65 | 144 | 0.0 | 6.0 | 0.00 | 0.00 | 0.00 | 45 | 1009.5 |
| 20260504042341 | 66 | 136 | 0.0 | 5.0 | 0.00 | 0.00 | 0.00 | 43 | 1009.4 |
| 20260504041145 | 67 | 142 | 0.0 | 5.0 | 0.00 | 0.00 | 0.00 | 39 | 1009.4 |
| 20260504035919 | 68 | 121 | 0.0 | 0.0 | 0.00 | 0.00 | 0.00 | 38 | 1009.4 |
| 20260504034651 | 69 | 132 | 0.0 | 0.0 | 0.00 | 0.00 | 0.00 | 34 | 1009.3 |
| 20260504033511 | 70 | 132 | 0.0 | 0.0 | 0.00 | 0.00 | 0.00 | 32 | 1009.2 |
| 20260504032319 | 71 | 140 | 0.0 | 0.0 | 0.00 | 0.00 | 0.00 | 30 | 1009.1 |
| 20260504031142 | 72 | 252 | 0.0 | 0.0 | 0.00 | 0.00 | 0.00 | 32 | 1009.0 |
| 20260504025908 | 73 | 252 | 0.0 | 0.0 | 0.00 | 0.00 | 0.00 | 33 | 1009.0 |